Temperature
7 6 5 6 7 7 7 8 8 8 9 8 8 7 7 8 8 7 7 7 7 7 6 6 7 7 7 8 8 8 9 9 9 9 10 9 10 10 10 10 10 10 10 10
6 5 6 7 7 7 7 7 7 8 8 8 7 6 7 7 7 7 6 6 6 6 6 6 6 6 6 7 7 8 8 8 8 9 9 9 9 9 9 9 9 9 10 10
5 6 7 7 6 6 6 6 6 6 7 7 6 5 6 6 7 7 6 6 6 6 5 5 5 5 6 6 7 7 7 7 8 8 8 8 8 9 9 9 9 9 9 9
5 6 6 5 5 6 5 6 6 6 5 5 6 4 5 6 5 5 5 5 5 5 5 5 4 5 5 5 6 6 7 7 7 7 8 8 8 8 8 8 8 8 9 9
5 5 5 4 5 5 5 6 6 5 5 4 5 4 4 5 4 4 4 4 4 4 4 4 4 4 4 5 5 5 6 6 6 7 7 7 7 7 7 8 8 8 8 8
5 5 4 4 5 5 5 5 5 5 4 3 4 4 3 3 3 3 4 4 3 4 4 4 3 3 4 4 4 5 5 5 6 6 6 6 7 7 7 7 7 7 7 8
4 4 4 4 3 4 4 3 3 3 3 4 5 4 2 2 3 3 3 3 3 3 3 3 3 3 3 3 4 4 4 5 5 5 5 6 6 6 6 6 6 7 7 7
2 3 3 3 3 2 3 3 3 3 3 4 4 3 1 2 2 2 2 2 1 1 2 2 2 2 2 2 3 3 4 4 4 4 5 5 5 5 5 5 6 6 6 6
1 2 3 3 3 3 3 3 3 3 3 3 3 2 2 2 1 1 1 1 1 0 1 1 1 1 1 2 2 3 3 3 3 4 4 4 4 4 5 5 5 5 5 5
1 1 2 3 3 2 3 3 2 2 2 2 3 2 1 0 0 0 0 -0 -0 -0 -0 0 0 0 1 1 1 2 2 2 3 3 3 3 4 4 4 4 4 4 4 5
1 0 1 2 1 1 1 1 2 2 2 2 1 1 1 0 0 -0 -0 -1 -1 -1 -1 -1 -0 -0 -0 0 1 1 1 2 2 2 3 3 3 3 3 3 4 4 4 4
1 0 -0 1 1 2 1 0 0 0 1 1 0 -0 0 -0 -0 -0 -1 -1 -1 -1 -1 -1 -1 -1 -0 -0 0 1 1 1 1 2 2 2 2 3 3 3 3 3 3 3
-0 -1 -1 0 0 0 0 -0 -0 0 0 -0 -1 -1 -1 -1 -1 -1 -1 -2 -2 -2 -2 -2 -1 -1 -1 -1 -0 -0 0 0 1 1 1 1 2 2 2 2 2 3 3 3
-0 -2 -2 -2 -1 -1 -1 -1 -1 -1 -2 -2 -1 -2 -2 -2 -2 -2 -2 -2 -2 -3 -3 -2 -2 -2 -2 -1 -1 -1 -1 -0 -0 0 0 1 1 1 1 2 2 2 2 2
-1 -2 -2 -1 -1 -1 -1 -2 -2 -2 -2 -3 -2 -2 -2 -2 -2 -2 -2 -3 -3 -3 -3 -3 -3 -3 -2 -2 -2 -1 -1 -1 -1 -1 -0 -0 0 0 1 1 1 1 1 1
-2 -2 -2 -2 -1 -1 -2 -2 -2 -2 -2 -2 -2 -3 -2 -2 -3 -3 -3 -3 -3 -3 -4 -4 -4 -3 -3 -3 -2 -2 -2 -2 -2 -1 -1 -1 -1 -0 -0 0 0 0 0 1
-3 -3 -2 -2 -1 -1 -3 -4 -3 -3 -3 -3 -4 -3 -3 -3 -3 -3 -3 -4 -4 -4 -4 -4 -4 -4 -4 -4 -3 -3 -3 -2 -2 -2 -2 -2 -1 -1 -1 -1 -0 -0 -0 -0
-3 -3 -3 -2 -2 -3 -4 -3 -3 -3 -4 -4 -4 -3 -3 -3 -4 -4 -4 -4 -5 -5 -5 -5 -5 -5 -4 -4 -4 -3 -3 -3 -3 -3 -2 -2 -2 -2 -2 -1 -1 -1 -1 -1
-3 -3 -3 -3 -3 -3 -3 -4 -4 -5 -5 -4 -4 -4 -4 -4 -4 -4 -4 -5 -5 -5 -5 -5 -5 -5 -5 -4 -4 -4 -3 -3 -3 -3 -3 -3 -3 -2 -2 -2 -2 -2 -1 -1
-3 -4 -4 -3 -3 -4 -4 -4 -4 -4 -5 -5 -5 -5 -5 -5 -5 -5 -5 -5 -5 -5 -5 -5 -5 -5 -5 -5 -5 -4 -4 -4 -4 -4 -4 -4 -3 -3 -3 -3 -3 -2 -2 -2
-5 -4 -4 -4 -4 -4 -5 -5 -4 -5 -6 -5 -5 -5 -5 -6 -6 -6 -6 -6 -6 -6 -6 -6 -6 -5 -5 -5 -5 -5 -5 -5 -5 -4 -4 -4 -4 -4 -4 -3 -3 -3 -3 -2
-5 -5 -5 -4 -5 -5 -5 -5 -6 -6 -5 -5 -6 -6 -6 -6 -6 -6 -6 -6 -6 -6 -6 -6 -6 -6 -6 -6 -6 -6 -6 -5 -5 -5 -5 -5 -4 -4 -4 -4 -4 -3 -3 -3
-6 -6 -6 -6 -6 -5 -5 -6 -5 -6 -6 -6 -6 -6 -6 -7 -7 -7 -7 -7 -7 -7 -6 -6 -6 -6 -6 -6 -6 -6 -6 -6 -6 -5 -5 -5 -5 -5 -5 -5 -4 -4 -4 -4
-6 -5 -6 -6 -6 -5 -5 -6 -6 -6 -6 -7 -7 -7 -7 -7 -7 -7 -7 -7 -7 -7 -7 -7 -7 -7 -7 -7 -7 -7 -7 -6 -6 -6 -6 -6 -5 -5 -5 -5 -5 -5 -5 -4
-6 -7 -7 -7 -7 -6 -6 -6 -6 -7 -7 -7 -7 -7 -7 -7 -8 -8 -8 -8 -8 -8 -8 -7 -7 -7 -7 -7 -7 -7 -7 -7 -6 -6 -6 -6 -6 -6 -6 -6 -6 -5 -5 -5
-6 -7 -8 -7 -6 -7 -6 -6 -7 -7 -7 -7 -8 -8 -8 -8 -8 -8 -8 -8 -8 -8 -8 -8 -8 -8 -7 -7 -7 -7 -7 -7 -7 -7 -6 -6 -6 -6 -6 -6 -6 -6 -6 -6
Wind_Speed
1 1 2 4 5 6 7 8 8 6 4 5 6 4 2 2 1 2 2 1 1 2 2 3 4 4 4 4 4 4 4 4 4 3 3 2 2 2 2 3 4 5 5 5
2 3 5 5 5 7 8 9 8 5 3 3 5 5 2 2 2 1 2 1 2 2 2 3 4 4 3 3 3 3 4 3 3 2 2 2 2 1 2 2 3 4 4 4
3 4 5 5 5 7 8 7 6 5 4 4 4 4 4 4 2 2 2 3 2 2 2 3 4 3 3 3 3 2 2 3 3 3 3 3 3 2 1 2 2 2 3 3
3 4 5 6 6 6 7 4 4 4 3 3 4 4 4 3 3 2 2 2 2 2 3 3 3 3 3 2 3 3 3 3 3 3 2 3 2 2 1 1 1 2 3 3
3 4 5 6 7 6 5 6 7 6 5 4 4 4 2 3 1 1 2 3 2 2 3 3 3 3 3 3 3 3 3 3 3 3 3 2 2 2 2 2 2 2 2 2
2 2 3 5 7 5 5 5 6 4 3 4 6 5 0 1 1 0 2 4 3 3 4 4 4 4 4 4 3 3 3 3 3 3 3 2 2 2 2 2 2 1 1 1
3 1 2 4 6 3 4 1 1 1 3 3 2 2 1 3 3 3 3 3 4 5 5 5 5 4 3 3 3 3 4 3 3 3 3 2 2 2 2 1 2 1 1 1
5 4 4 4 4 4 4 2 1 2 2 1 1 1 2 4 5 6 5 5 6 6 6 5 4 3 3 3 3 3 3 3 3 3 2 2 2 1 1 0 0 1 1 1
4 4 4 5 5 4 3 2 2 2 2 1 1 2 2 5 7 7 7 7 7 6 5 5 5 4 3 3 3 3 3 3 3 3 3 3 2 2 2 2 1 1 1 0
5 5 5 3 4 3 3 3 2 1 1 1 1 1 1 3 4 6 7 7 6 5 5 4 4 4 4 4 3 3 3 3 3 3 3 2 2 2 2 1 1 1 1 1
5 3 4 3 2 4 4 2 2 2 2 1 1 1 3 2 3 4 5 5 5 5 5 4 4 4 4 4 3 3 3 3 3 3 3 2 2 2 2 2 2 1 1 1
4 3 4 3 2 3 4 4 3 1 2 2 0 1 4 5 5 5 5 5 6 6 5 4 4 4 4 4 4 3 3 3 3 3 3 3 3 2 2 2 2 2 2 1
4 3 4 2 2 4 3 5 4 2 1 1 1 1 3 6 6 6 6 6 6 6 6 5 5 5 5 4 4 4 3 3 3 3 3 3 2 2 2 2 2 2 2 2
3 2 1 2 3 3 3 5 5 2 0 1 1 3 4 6 6 6 6 6 5 5 6 6 5 5 5 5 5 4 4 4 3 3 2 2 2 2 2 2 2 2 2 2
3 2 3 5 4 2 3 4 3 1 1 1 3 3 4 5 5 6 6 6 6 6 7 7 6 5 5 5 5 4 4 4 3 2 2 2 2 2 2 2 2 2 2 3
3 3 4 5 4 1 3 5 3 3 3 3 3 4 4 5 5 6 6 7 7 7 7 7 7 6 6 5 5 4 4 4 3 2 2 2 2 2 2 2 2 2 2 3
2 3 3 3 3 3 3 3 2 0 1 2 3 4 5 5 6 6 6 7 7 7 7 7 6 6 6 5 5 5 4 4 3 2 2 2 2 2 2 3 3 3 3 3
2 3 3 4 3 2 2 1 1 0 2 2 2 3 4 4 5 4 5 6 6 7 7 6 6 6 6 5 5 5 4 3 3 3 3 3 3 3 3 3 3 3 3 2
1 1 2 2 2 3 0 2 2 1 3 3 3 4 5 5 4 2 5 6 6 6 6 5 5 5 5 5 4 4 4 3 3 3 4 4 3 3 3 3 4 3 3 2
1 1 2 2 2 2 1 2 2 1 2 4 4 5 6 6 4 4 7 7 6 6 5 5 5 5 5 5 4 4 4 3 3 4 4 4 3 3 3 4 4 3 2 2
1 2 2 3 2 2 2 3 1 0 3 5 4 4 4 4 4 5 7 6 6 6 6 6 5 5 4 5 4 4 4 4 4 4 4 4 4 3 3 3 3 2 2 2
1 1 1 2 2 3 2 2 1 3 3 4 4 4 4 5 5 6 6 6 6 6 6 6 5 5 4 4 4 4 4 4 4 4 4 4 4 4 3 2 3 2 2 1
2 3 1 2 3 1 1 1 1 2 4 4 4 5 4 5 6 6 6 6 5 5 6 6 5 5 5 4 4 4 5 5 4 4 4 4 4 4 3 2 2 2 2 1
1 1 2 3 3 3 2 2 3 3 3 4 4 5 4 5 6 6 6 6 6 5 5 5 5 5 5 5 4 4 4 4 4 4 4 4 3 3 3 3 2 2 2 2
2 1 2 3 3 3 3 3 4 4 4 4 5 4 4 5 6 6 6 6 6 6 5 5 4 5 5 5 4 5 4 4 4 4 4 4 4 3 3 3 3 3 2 2
2 3 3 4 2 2 4 4 4 4 5 5 5 5 5 5 6 6 5 5 5 6 5 5 5 5 5 5 5 4 4 4 3 4 4 3 3 3 3 3 4 6 5 6
Wind_Direction
269 316 279 274 253 270 270 260 259 260 231 211 219 234 253 213 171 173 166 162 148 112 91 93 85 67 67 64 71 77 83 83 85 93 103 110 112 96 90 88 109 112 116 118
304 302 298 290 277 272 267 260 261 274 260 234 223 235 223 226 219 157 139 141 149 113 95 89 90 79 66 65 57 66 75 81 89 85 106 118 115 105 94 77 90 103 105 111
294 326 316 302 295 278 275 258 263 277 304 255 238 247 226 209 179 94 83 80 91 117 117 101 91 86 74 70 64 58 66 74 76 67 94 102 96 91 80 87 99 82 102 105
294 333 326 312 302 288 271 290 290 273 252 253 213 243 214 194 148 99 61 54 67 87 103 95 93 90 78 67 62 60 61 64 68 72 99 118 125 135 140 134 117 90 110 116
326 358 340 316 310 294 274 292 271 254 237 251 242 241 237 157 140 65 47 52 50 82 110 104 89 95 83 69 63 66 67 62 62 65 74 103 112 108 112 119 128 123 96 110
304 12 6 334 316 297 307 287 263 240 223 236 227 212 260 151 226 53 53 48 36 61 79 84 77 74 77 70 62 64 71 66 57 59 71 71 100 110 113 135 143 143 131 104
323 21 43 354 332 314 332 311 298 233 210 223 178 181 133 44 45 59 68 52 44 55 59 64 60 50 59 66 64 65 65 56 48 50 61 60 49 109 130 148 162 154 154 143
332 334 26 7 350 313 281 266 248 254 245 274 185 190 122 67 51 58 60 56 46 40 43 49 50 46 51 53 63 69 65 56 45 48 50 59 45 58 80 87 156 163 180 179
332 309 357 1 357 337 309 288 301 285 273 259 204 104 96 41 44 43 42 43 40 34 32 45 42 39 43 45 43 60 65 53 42 40 42 45 38 40 42 29 19 60 42 158
320 299 315 352 349 352 320 321 325 292 273 261 242 158 42 21 22 29 29 25 27 29 25 34 41 39 32 35 37 46 49 48 46 38 36 33 34 39 32 26 12 2 21 18
322 299 312 342 7 356 6 359 327 307 296 281 263 38 34 65 45 36 26 19 21 23 17 21 27 34 37 35 34 41 38 34 35 30 24 29 26 36 38 23 355 345 358 347
339 322 295 296 55 38 41 15 3 357 315 325 264 53 31 51 43 41 31 23 20 23 19 22 26 33 31 25 25 32 28 24 22 15 16 20 18 23 30 14 351 347 339 328
352 334 317 321 25 23 16 9 356 319 338 319 280 262 36 36 26 24 24 17 13 17 18 20 25 27 21 17 18 19 17 13 14 17 15 11 3 14 6 349 336 336 335 319
358 317 242 266 311 340 333 349 2 19 318 307 272 284 344 3 1 1 5 9 6 9 16 19 20 18 12 9 9 8 4 4 4 13 12 358 348 353 349 340 334 329 323 302
345 296 280 276 289 312 337 335 354 358 298 256 294 299 325 345 350 355 359 0 3 7 15 14 7 2 4 3 360 357 354 351 348 1 2 347 346 349 346 338 319 312 306 298
336 300 298 283 258 255 325 337 327 309 298 285 305 306 342 356 360 359 354 354 358 4 6 2 359 356 356 352 347 346 346 340 341 348 345 340 341 340 333 322 313 303 294 286
311 310 309 295 308 319 312 311 299 297 328 305 294 301 341 349 350 354 354 359 1 3 359 354 350 347 344 341 339 335 332 334 339 341 334 329 330 326 325 315 303 293 287 279
289 309 286 295 330 287 248 74 34 270 340 333 309 331 351 347 336 358 7 7 5 357 350 346 344 340 336 333 333 330 332 336 338 334 329 329 332 328 325 320 304 298 289 272
232 277 296 303 292 259 162 37 23 326 309 347 333 337 345 345 333 353 24 16 359 347 340 338 334 330 331 333 332 335 335 339 343 336 330 328 325 321 318 310 307 303 297 291
327 243 275 284 280 273 307 350 334 292 276 2 358 333 337 348 337 321 348 353 348 344 339 336 334 337 338 335 337 343 340 345 338 330 325 325 321 309 305 303 305 304 299 293
327 286 268 271 251 266 336 325 7 114 274 330 337 330 334 322 296 305 325 335 340 339 337 337 337 339 336 335 345 350 345 334 326 329 330 326 324 314 303 306 304 305 304 306
224 257 247 268 244 259 13 56 108 259 310 326 331 333 327 314 316 324 328 329 335 339 339 339 338 333 335 344 350 345 334 326 330 333 333 331 329 320 319 318 315 312 300 303
201 209 236 216 225 275 122 172 273 319 315 318 321 318 318 313 314 320 322 324 327 333 333 334 334 332 335 345 348 336 327 332 336 338 336 332 329 328 327 323 318 315 310 298
220 177 242 266 262 280 281 300 322 324 308 308 311 311 314 308 310 315 320 324 328 329 331 334 335 334 330 335 339 331 330 337 339 336 331 328 333 335 342 339 333 326 320 311
256 199 243 254 282 297 274 306 313 312 309 309 311 312 311 308 311 314 317 320 325 329 331 329 327 326 324 328 332 333 334 337 335 329 329 332 333 334 345 346 338 329 325 300
211 195 214 239 255 262 283 308 320 315 311 310 310 313 318 315 310 315 315 315 317 321 324 326 327 326 326 328 327 330 332 330 329 330 333 334 338 338 338 342 348 352 340 340
Height
1484 1485 1485 1484 1482 1481 1480 1479 1478 1476 1475 1478 1481 1483 1485 1486 1487 1488 1490 1491 1492 1494 1495 1496 1496 1497 1498 1500 1502 1504 1505 1508 1510 1513 1515 1517 1520 1522 1525 1527 1529 1531 1533 1535
1485 1486 1484 1482 1481 1480 1479 1479 1478 1477 1475 1477 1480 1483 1484 1485 1486 1487 1488 1489 1491 1492 1494 1495 1495 1496 1497 1498 1500 1502 1504 1507 1509 1511 1514 1516 1518 1521 1523 1525 1527 1529 1531 1533
1487 1486 1483 1482 1481 1480 1478 1479 1478 1479 1478 1477 1480 1483 1483 1483 1484 1486 1487 1488 1490 1491 1492 1493 1494 1495 1496 1497 1499 1501 1503 1505 1507 1509 1512 1514 1516 1518 1521 1523 1524 1526 1528 1530
1485 1484 1484 1482 1481 1480 1479 1476 1478 1479 1483 1483 1481 1487 1483 1482 1483 1485 1487 1488 1489 1490 1492 1493 1494 1495 1496 1497 1498 1500 1501 1504 1505 1507 1509 1511 1513 1515 1518 1520 1522 1524 1526 1528
1487 1485 1485 1484 1482 1481 1478 1477 1478 1478 1481 1485 1482 1486 1485 1481 1485 1487 1487 1488 1489 1490 1491 1492 1493 1495 1496 1496 1497 1499 1500 1502 1504 1505 1507 1509 1511 1513 1516 1518 1520 1522 1523 1525
1487 1486 1487 1486 1483 1480 1479 1477 1475 1476 1480 1487 1480 1484 1487 1487 1487 1487 1488 1489 1489 1490 1490 1492 1493 1494 1495 1496 1497 1498 1499 1501 1502 1504 1505 1507 1509 1511 1513 1515 1517 1519 1520 1522
1488 1486 1487 1487 1484 1481 1481 1483 1483 1483 1483 1481 1475 1481 1492 1489 1487 1488 1488 1489 1490 1490 1490 1491 1492 1493 1494 1495 1496 1497 1498 1499 1501 1502 1504 1505 1507 1509 1510 1512 1514 1515 1517 1519
1496 1494 1490 1489 1489 1488 1484 1483 1488 1489 1484 1480 1477 1484 1493 1490 1489 1489 1490 1491 1491 1490 1491 1492 1492 1493 1494 1494 1495 1496 1497 1498 1500 1501 1502 1504 1506 1507 1508 1510 1511 1512 1514 1516
1503 1498 1492 1490 1489 1489 1486 1485 1483 1486 1483 1486 1484 1488 1490 1488 1489 1490 1491 1491 1492 1492 1492 1492 1493 1494 1494 1494 1495 1495 1496 1497 1498 1499 1500 1502 1504 1504 1506 1507 1509 1510 1511 1513
1506 1504 1495 1492 1490 1490 1489 1487 1487 1487 1487 1487 1483 1487 1495 1495 1493 1493 1494 1493 1492 1493 1493 1493 1493 1493 1494 1494 1494 1495 1496 1496 1497 1498 1499 1500 1502 1502 1503 1505 1506 1507 1508 1510
1507 1507 1501 1496 1496 1496 1493 1492 1490 1488 1487 1490 1494 1499 1497 1497 1496 1496 1496 1496 1495 1494 1494 1493 1493 1493 1493 1493 1494 1494 1494 1495 1495 1497 1498 1499 1500 1500 1501 1503 1504 1505 1506 1507
1509 1508 1507 1500 1497 1496 1496 1498 1497 1499 1496 1492 1498 1508 1499 1499 1498 1498 1498 1498 1496 1495 1495 1494 1493 1493 1493 1493 1493 1493 1493 1494 1495 1495 1496 1497 1497 1498 1499 1500 1501 1502 1503 1504
1512 1513 1511 1503 1503 1502 1501 1500 1500 1498 1499 1501 1504 1510 1502 1501 1501 1500 1500 1499 1497 1496 1495 1494 1493 1493 1493 1493 1492 1492 1493 1493 1493 1494 1494 1494 1495 1495 1496 1497 1498 1499 1500 1501
1514 1516 1517 1517 1512 1509 1508 1506 1503 1503 1506 1506 1507 1507 1505 1503 1502 1502 1501 1500 1498 1496 1495 1494 1493 1493 1493 1492 1492 1491 1492 1492 1492 1492 1492 1492 1493 1493 1493 1494 1495 1496 1497 1498
1516 1517 1514 1511 1508 1508 1509 1508 1507 1508 1509 1511 1509 1508 1507 1506 1505 1504 1502 1500 1498 1496 1495 1494 1494 1493 1491 1491 1490 1490 1490 1490 1490 1490 1490 1490 1490 1490 1491 1492 1492 1493 1494 1494
1518 1518 1514 1510 1505 1506 1508 1509 1508 1509 1509 1509 1508 1509 1507 1506 1505 1504 1502 1501 1499 1497 1496 1495 1493 1492 1491 1490 1490 1489 1488 1488 1488 1488 1488 1488 1487 1488 1488 1489 1489 1490 1490 1491
1520 1520 1516 1511 1505 1505 1512 1513 1512 1512 1512 1512 1512 1511 1507 1506 1505 1504 1503 1501 1500 1498 1497 1495 1493 1492 1491 1490 1488 1487 1486 1486 1486 1485 1485 1485 1485 1485 1485 1485 1486 1486 1486 1487
1521 1520 1517 1512 1511 1519 1518 1512 1512 1512 1513 1512 1511 1510 1509 1508 1506 1505 1504 1502 1500 1498 1496 1495 1493 1491 1490 1488 1487 1486 1485 1484 1483 1483 1482 1482 1482 1482 1481 1482 1482 1482 1482 1483
1519 1521 1519 1517 1517 1513 1514 1513 1514 1515 1514 1512 1511 1509 1508 1507 1504 1504 1503 1502 1500 1498 1496 1494 1492 1490 1488 1487 1485 1483 1482 1481 1481 1480 1480 1479 1479 1478 1478 1478 1478 1478 1479 1479
1519 1520 1522 1517 1518 1519 1518 1515 1513 1515 1515 1512 1511 1510 1508 1507 1507 1505 1503 1501 1499 1497 1495 1493 1491 1488 1486 1485 1483 1481 1480 1479 1478 1478 1478 1477 1477 1476 1475 1475 1475 1475 1475 1475
1526 1523 1524 1520 1520 1519 1518 1514 1513 1520 1519 1514 1511 1510 1509 1508 1508 1506 1502 1500 1498 1496 1493 1491 1489 1487 1485 1483 1481 1479 1477 1477 1476 1476 1475 1475 1474 1473 1472 1472 1471 1471 1471 1471
1527 1526 1524 1521 1521 1523 1517 1515 1518 1518 1514 1512 1511 1509 1508 1507 1505 1503 1501 1498 1496 1494 1491 1489 1487 1485 1483 1482 1480 1478 1476 1475 1475 1474 1473 1472 1471 1470 1469 1469 1468 1468 1467 1467
1524 1525 1523 1523 1523 1518 1516 1515 1515 1514 1512 1511 1509 1508 1506 1504 1502 1501 1499 1497 1494 1492 1490 1488 1485 1483 1482 1480 1479 1477 1475 1474 1473 1472 1470 1469 1468 1467 1467 1466 1465 1464 1464 1464
1521 1520 1520 1519 1516 1515 1515 1514 1513 1512 1510 1509 1508 1506 1504 1502 1500 1498 1496 1494 1492 1490 1488 1485 1483 1481 1480 1478 1477 1475 1474 1472 1471 1469 1468 1467 1466 1465 1464 1463 1463 1462 1461 1461
1520 1520 1519 1518 1515 1513 1512 1512 1511 1509 1508 1506 1505 1503 1502 1500 1498 1496 1494 1492 1490 1488 1485 1483 1481 1479 1478 1476 1475 1473 1472 1470 1468 1467 1466 1465 1464 1463 1462 1461 1461 1460 1459 1459
1517 1518 1518 1516 1513 1513 1511 1509 1509 1507 1505 1504 1502 1501 1499 1498 1495 1493 1491 1490 1488 1486 1484 1481 1479 1477 1476 1474 1472 1471 1470 1468 1467 1465 1464 1463 1462 1461 1460 1459 1458 1457 1457 1456